This is the latest recevied weather packets stored in our database for station/object IU2EVW-3. If no packets are shown the sender has not sent any weather packets the latest 10 day(s).
| Time | Temp. | Humidity | Pressure | Rain* | Wind** | Luminosity | Snow |
|---|---|---|---|---|---|---|---|
| 1777686106 | 12.22° C | 51% | 1027.2 hPa | - | - | - | - |
| 1777684905 | 12.78° C | 50% | 1027.1 hPa | - | - | - | - |
| 1777683704 | 12.78° C | 49% | 1027.1 hPa | - | - | - | - |
| 1777682503 | 12.78° C | 47% | 1027.1 hPa | - | - | - | - |
| 1777681301 | 13.33° C | 45% | 1027.1 hPa | - | - | - | - |
| 1777680100 | 13.89° C | 44% | 1027.1 hPa | - | - | - | - |
| 1777678899 | 13.89° C | 42% | 1027 hPa | - | - | - | - |
| 1777677698 | 14.44° C | 40% | 1027.1 hPa | - | - | - | - |
| 1777676497 | 14.44° C | 39% | 1027.1 hPa | - | - | - | - |
| 1777675296 | 14.44° C | 39% | 1027 hPa | - | - | - | - |
| 1777674095 | 15° C | 38% | 1026.9 hPa | - | - | - | - |
| 1777672893 | 15° C | 38% | 1026.8 hPa | - | - | - | - |
| 1777671692 | 15° C | 38% | 1026.7 hPa | - | - | - | - |
| 1777670491 | 15.56° C | 38% | 1026.7 hPa | - | - | - | - |
| 1777669290 | 15.56° C | 37% | 1026.6 hPa | - | - | - | - |
| 1777668088 | 15.56° C | 37% | 1026.6 hPa | - | - | - | - |
| 1777666887 | 16.11° C | 37% | 1026.5 hPa | - | - | - | - |
| 1777665686 | 16.11° C | 37% | 1026.4 hPa | - | - | - | - |
| 1777664485 | 16.67° C | 36% | 1026.1 hPa | - | - | - | - |
| 1777663284 | 16.67° C | 35% | 1025.8 hPa | - | - | - | - |
| 1777662082 | 17.22° C | 35% | 1025.6 hPa | - | - | - | - |
| 1777660881 | 17.78° C | 34% | 1025.4 hPa | - | - | - | - |
| 1777659680 | 18.33° C | 33% | 1025.2 hPa | - | - | - | - |
| 1777658479 | 19.44° C | 31% | 1025.1 hPa | - | - | - | - |
| 1777657277 | 21.11° C | 29% | 1025 hPa | - | - | - | - |
* Rain since midnight (hover to see other rain measurements)
** Current wind speed in m/s (hover to see current wind gust speed)